Regional Weather Roundup
Issued by NWS Cleveland, OH

Home | Current Version | Previous Version | Graphics & Text | Print | Product List | Glossary Off
Versions: 1 2 3 4 5 6 7 8 9 10 11 12 13 14 15 16 17 18 19 20 21 22 23 24 25 26 27 28 29 30 31 32 33 34 35 36 37 38 39 40 41 42 43 44 45 46 47 48 49 50

000
ASUS41 KCLE 251412
RWRCLE
OHIO REGIONAL WEATHER ROUNDUP
NATIONAL WEATHER SERVICE WILMINGTON, OH
1000 AM EDT SUN JUN 25 2017

NOTE: "FAIR" INDICATES FEW OR NO CLOUDS BELOW 12,000 FEET WITH NO
SIGNIFICANT WEATHER AND/OR OBSTRUCTIONS TO VISIBILITY.

OHZ001>008-015>018-024>027-034-035-043-044-251500-
   NORTHWEST OHIO

CITY           SKY/WX    TMP DP  RH WIND       PRES   REMARKS
DEFIANCE       FAIR      63  46  54 W8G16     30.07R
FINDLAY        FAIR      68  49  50 W17G24    30.06R
TOLEDO EXPRESS FAIR      65  50  58 W16G22    30.04R
TOLEDO EXEC    FAIR      67  52  58 W18G25    30.04S
LIMA           FAIR      66  50  56 W21G28    30.09R
$$

OHZ009>014-019>023-028>033-038-089-251500-
   NORTHEAST OHIO

CITY           SKY/WX    TMP DP  RH WIND       PRES   REMARKS
CLE-HOPKINS    FAIR      71  50  47 SW10      30.06F
CLE-LAKEFRONT  FAIR      71  49  45 SW14      30.03F
CUY CO. ARPT   MOSUNNY   68  48  49 W16       30.05S
LORAIN-ELYRIA  FAIR      68  47  46 W15       30.05F
ASHTABULA      FAIR      69  52  54 W13       30.04F
AKRON-CANTON   FAIR      70  46  42 W14       30.08S
WOOSTER        FAIR      67  49  52 W13       30.09S
MANSFIELD      FAIR      67  49  52 SW15      30.09S
YOUNGSTOWN     FAIR      68  50  52 W15G21    30.06S
$$

OHZ042-051>053-060>062-070>072-077>081-251500-
  SOUTHWEST OHIO

CITY           SKY/WX    TMP DP  RH WIND       PRES   REMARKS
CINC-COVINGTON FAIR      69  50  50 W12       30.16S
CINC-LUNKEN    FAIR      71  52  50 W12       30.16F
HAMILTON       FAIR      70  54  56 W9        30.16S
DAYTON         FAIR      69  47  45 W18       30.13S
WRIGHT-PAT AFB SUNNY     70  49  47 SW13G22   30.12S
DAYTON GENERAL FAIR      68  49  50 W9        30.14S
WILMINGTON     FAIR      69  51  52 W14G20    30.14F
$$

OHZ036-037-039>041-045>050-054>059-063>069-073>076-082>088-251500-
  CENTRAL AND SOUTHEAST OHIO

CITY           SKY/WX    TMP DP  RH WIND       PRES   REMARKS
COLUMBUS       FAIR      70  49  47 W9        30.12S
OSU AIRPORT    FAIR      70  49  47 W10       30.11F
BOLTON FIELD   SUNNY     68  54  60 SW9       30.13S
RICKENBACK AFB FAIR      68  51  54 SW10      30.13S
NEWARK         FAIR      70  47  43 SW7       30.12S
MARION         PTSUNNY   69  47  45 SW13      30.09F
LANCASTER      FAIR      68  51  54 W9        30.14S
ZANESVILLE     FAIR      69  53  56 W7        30.12S
NEW PHILLY     FAIR      68  55  63 W8        30.11R
$$




USA.gov is the U.S. government's official web portal to all federal, state and local government web resources and services.